[[{"header":{"parameterUnit":"m.s-1","parameterCategory":1,"la1":30.2991,"la2":30.254,"lo1":-89.0895,"lo2":-89.0444,"dy":0.0017,"dx":0.0017,"nx":28,"ny":28,"refTime":"2025-04-26T09:00:00:Z","depth":0,"parameterNumber":2,"parameterNumberName":"U-component_of_WINDS"},"data":[0,0,0,0,0,0,0,0,0,0,0,0,0,0,0,0,0,0,0,0,0,0,0,0,0,0,0,0,0,0,0,0,0,0,0,0,0,0,0,0,0,0,0,0,0,0,0,0,0,0,0,0,0,0,0,0,0,0,0.5947,0.5947,0,0.6018,0.6019,0.602,0.6032,0.6032,0.6031,0.603,0.6104,0.6107,0.6109,0,0,0,0,0,0,0,0,0,0,0,0,0,0.5821,0.5824,0.5947,0.5948,0.5948,0.6018,0.6019,0.602,0.6032,0.6032,0.6031,0.603,0.6103,0.6106,0.6109,0,0,0,0,0,0,0,0,0,0,0,0,0,0.5883,0.5824,0.5946,0.5963,0.5965,0.6018,0.6019,0.602,0.6032,0.6032,0.6031,0.603,0.6102,0.6106,0.611,0.6151,0,0,0.6121,0.6123,0,0,0,0,0,0,0,0,0.5879,0.5887,0.596,0.5962,0.5964,0.6015,0.6002,0.6064,0.6033,0.6007,0.603,0.6029,0.6075,0.6081,0.6097,0.6154,0.6158,0.6122,0.6124,0.6125,0.6127,0,0,0,0,0,0,0,0.5875,0.5884,0.5975,0.5961,0.5964,0.5967,0.5975,0.6014,0.6045,0.6009,0.601,0.6018,0.6076,0.6093,0.6098,0.6159,0.6121,0.6125,0.6127,0.6129,0.6254,0.6255,0,0,0,0,0,0,0.5868,0.5881,0.5973,0.5977,0.5919,0.597,0.5978,0.6,0.6045,0.6051,0.6019,0.6019,0.6087,0.6094,0.6101,0.6152,0.6125,0.6129,0.6131,0.6253,0.6254,0.6255,0,0,0,0,0,0,0.5865,0.5876,0.597,0.5929,0.5941,0.5973,0.5997,0.6002,0.6018,0.6052,0.6058,0.603,0.6086,0.6096,0.6138,0.6155,0.6131,0.6134,0.6251,0.6253,0.6254,0.6255,0,0,0,0,0,0,0.5861,0.5875,0.5891,0.5929,0.5943,0.6006,0.5998,0.6004,0.6025,0.6025,0.6064,0.607,0.6087,0.6133,0.6142,0.616,0.6137,0.625,0.6252,0.6254,0.6253,0.6256,0.6259,0,0,0,0,0,0.5857,0.5888,0.5891,0.5902,0.5964,0.6007,0.6015,0.6033,0.6026,0.6042,0.6064,0.6069,0.6152,0.6137,0.6148,0.6167,0.6249,0.6251,0.6254,0.6252,0.6256,0.6258,0,0,0,0,0,0,0.5851,0.5893,0.5898,0.5942,0.5971,0.6009,0.603,0.6036,0.6067,0.6066,0.6087,0.6096,0.6138,0.6156,0.6139,0.6209,0.62,0.6204,0.6195,0.6198,0.6201,0.6196,0.614,0,0,0,0,0,0.5855,0.5885,0.5921,0.5957,0.5971,0.5998,0.6017,0.6029,0.6059,0.6071,0.6096,0.6126,0.6158,0.6179,0.6211,0.6256,0.6265,0.6275,0.6277,0.6279,0.6283,0.6308,0.6312,0.6263,0.6263,0.6263,0,0,0.5863,0.589,0.5908,0.5957,0.598,0.6012,0.6008,0.6042,0.6065,0.6077,0.6118,0.6137,0.6172,0.6215,0.6236,0.6232,0.6298,0.6282,0.6283,0.6286,0.6311,0.6315,0.6319,0.6264,0.6264,0.6264,0,0,0.5894,0.5918,0.595,0.5974,0.6009,0.6027,0.6034,0.6071,0.6085,0.6127,0.6136,0.6164,0.622,0.6244,0.6263,0.6303,0.6308,0.6313,0.6326,0.635,0.6354,0.6358,0.6372,0.6377,0.6317,0.6317,0.6317,0,0.59,0.5948,0.5966,0.6,0.6021,0.6032,0.6065,0.6087,0.6131,0.6145,0.614,0.621,0.6234,0.6283,0.6293,0.6309,0.6318,0.6309,0.6352,0.6356,0.6359,0.6373,0.6378,0.6317,0.6317,0.6317,0.6317,0,0.5954,0.5987,0.6009,0.605,0.6074,0.6107,0.613,0.6152,0.6161,0.6179,0.6222,0.6251,0.6289,0.6301,0.6311,0.6352,0.6349,0.6348,0.6339,0.6364,0.6377,0.6383,0.6317,0.6317,0.6317,0.6317,0,0,0.5983,0.6035,0.6042,0.6061,0.6101,0.6127,0.616,0.6197,0.6215,0.6245,0.6273,0.632,0.6319,0.6341,0.6354,0.6375,0.6404,0.6372,0.6373,0.6377,0.6451,0.6452,0.6457,0.6408,0.6409,0.641,0.6448,0,0.6019,0.6079,0.6096,0.6147,0.6177,0.6188,0.6217,0.6245,0.6262,0.6291,0.6311,0.6343,0.634,0.6353,0.6375,0.6396,0.642,0.6394,0.6435,0.6436,0.6426,0.6464,0.6465,0.65,0.6454,0.6455,0.6455,0,0.6069,0.61,0.6153,0.6188,0.6202,0.6228,0.6262,0.629,0.6321,0.6332,0.6357,0.6367,0.6402,0.6392,0.6441,0.6422,0.644,0.6453,0.6455,0.646,0.6447,0.647,0.6511,0.6517,0.6464,0.6463,0.6462,0,0.6086,0.614,0.6179,0.6195,0.6237,0.6255,0.6273,0.6303,0.6324,0.6355,0.6368,0.6403,0.6422,0.6448,0.6467,0.6458,0.6515,0.6506,0.6525,0.6525,0.6537,0.6536,0.6581,0.6548,0.6548,0.6548,0.6548,0,0.6124,0.6156,0.6186,0.621,0.6247,0.6266,0.6302,0.6321,0.6347,0.6375,0.6387,0.6412,0.6437,0.6466,0.6481,0.6519,0.6528,0.6538,0.6542,0.6537,0.6536,0.6549,0.6547,0.6549,0.6549,0.6549,0.6549,0,0.6148,0.617,0.6213,0.6249,0.6259,0.6284,0.6315,0.6339,0.6357,0.6391,0.6401,0.6429,0.6464,0.6486,0.653,0.6541,0.6582,0.6585,0.6572,0.6573,0.6591,0.6589,0.6647,0.6656,0.6617,0.6617,0.6618,0,0.6171,0.6196,0.6235,0.6254,0.6273,0.6304,0.6325,0.6345,0.6367,0.6404,0.6423,0.6458,0.6488,0.6543,0.6567,0.6601,0.6605,0.6623,0.661,0.6605,0.6605,0.6604,0.6606,0.6625,0.6626,0.6626,0.6626,0,0.621,0.6219,0.6249,0.6283,0.6308,0.6335,0.6363,0.6378,0.6403,0.6427,0.6462,0.6485,0.653,0.6565,0.6601,0.662,0.6627,0.663,0.6636,0.6632,0.6623,0.6627,0.6577,0.6628,0.6628,0.6628,0.6628,0.6628,0.6234,0.6256,0.6287,0.632,0.6343,0.6368,0.6392,0.6413,0.6443,0.6481,0.6491,0.6528,0.6559,0.6608,0.6627,0.6657,0.6654,0.6664,0.6666,0.6668,0.6668,0.6618,0.6663,0.6663,0.6663,0.6663,0.6663,0,0.6273,0.6293,0.6323,0.6361,0.6387,0.6391,0.6422,0.6443,0.6476,0.6503,0.6532,0.6573,0.6607,0.6634,0.6669,0.6687,0.6691,0.6695,0.6694,0.6698,0.6668,0.6659,0.6691,0.6691,0.6691,0.6691,0.6691,0.6691,0.6296,0.6334,0.6347,0.6397,0.6417,0.6453,0.647,0.6494,0.6516,0.6561,0.6589,0.6606,0.6634,0.667,0.6702,0.6709,0.6721,0.6725,0.6733,0.6704,0.6701,0.6698,0.6689,0.6727,0.6727,0.676,0.6761,0.6761]},{"header":{"parameterUnit":"m.s-1","parameterCategory":1,"la1":30.2991,"la2":30.254,"lo1":-89.0895,"lo2":-89.0444,"dy":0.0017,"dx":0.0017,"nx":28,"ny":28,"refTime":"2025-04-26T09:00:00:Z","depth":0,"parameterNumber":3,"parameterNumberName":"V-component_of_WINDS"},"data":[0,0,0,0,0,0,0,0,0,0,0,0,0,0,0,0,0,0,0,0,0,0,0,0,0,0,0,0,0,0,0,0,0,0,0,0,0,0,0,0,0,0,0,0,0,0,0,0,0,0,0,0,0,0,0,0,0,0,1.1629,1.1629,0,1.1652,1.1653,1.1653,1.1634,1.1633,1.1632,1.1632,1.1653,1.1654,1.1656,0,0,0,0,0,0,0,0,0,0,0,0,0,1.1565,1.1566,1.1629,1.1629,1.1629,1.1652,1.1653,1.1653,1.1634,1.1633,1.1632,1.1631,1.1653,1.1654,1.1656,0,0,0,0,0,0,0,0,0,0,0,0,0,1.1591,1.1566,1.1629,1.1623,1.1623,1.1652,1.1653,1.1653,1.1634,1.1633,1.1632,1.1631,1.1652,1.1654,1.1656,1.1692,0,0,1.1662,1.1663,0,0,0,0,0,0,0,0,1.1589,1.1593,1.1623,1.1623,1.1623,1.1639,1.1638,1.1666,1.1635,1.163,1.1632,1.163,1.1649,1.1651,1.1658,1.1693,1.1694,1.1662,1.1663,1.1664,1.1665,0,0,0,0,0,0,0,1.1588,1.1592,1.1638,1.1624,1.1624,1.1618,1.162,1.1643,1.1646,1.163,1.1629,1.1632,1.1649,1.1656,1.1659,1.1694,1.1662,1.1664,1.1665,1.1666,1.176,1.1761,0,0,0,0,0,0,1.1587,1.1591,1.1637,1.1639,1.1603,1.162,1.1623,1.1635,1.1645,1.1646,1.1633,1.1631,1.1654,1.1656,1.1659,1.1703,1.1664,1.1666,1.1667,1.1758,1.176,1.1762,0,0,0,0,0,0,1.1585,1.1591,1.1636,1.1614,1.162,1.1623,1.1636,1.1636,1.1644,1.1648,1.1648,1.1641,1.1653,1.1656,1.1684,1.1703,1.1667,1.1669,1.1757,1.1759,1.1761,1.179,0,0,0,0,0,0,1.1584,1.1591,1.1605,1.1615,1.1621,1.1662,1.1638,1.1638,1.1648,1.1645,1.1655,1.1655,1.1652,1.1681,1.1686,1.1705,1.167,1.1755,1.1758,1.176,1.1787,1.1792,1.1797,0,0,0,0,0,1.1581,1.1611,1.1606,1.1612,1.1639,1.1663,1.1666,1.1663,1.1649,1.1663,1.1666,1.1655,1.17,1.1684,1.169,1.1709,1.1754,1.1757,1.176,1.1785,1.1791,1.1797,0,0,0,0,0,0,1.1602,1.1613,1.1607,1.1641,1.1651,1.166,1.1677,1.167,1.1684,1.1681,1.1675,1.1678,1.1707,1.1711,1.1693,1.1745,1.1725,1.1729,1.1742,1.1748,1.1753,1.1752,1.1672,0,0,0,0,0,1.1611,1.1631,1.1638,1.1668,1.1673,1.1675,1.1685,1.1681,1.1692,1.1696,1.17,1.171,1.1726,1.1737,1.1752,1.1787,1.1789,1.1803,1.1808,1.1812,1.1816,1.1835,1.1842,1.1771,1.1771,1.1771,0,0,1.1629,1.1637,1.165,1.1672,1.168,1.1699,1.1678,1.17,1.1714,1.1699,1.1726,1.1729,1.1739,1.1771,1.1785,1.1775,1.1836,1.1816,1.1819,1.1821,1.1839,1.1846,1.1852,1.1773,1.1773,1.1773,0,0,1.1673,1.1681,1.1706,1.1715,1.1727,1.1728,1.1734,1.1744,1.1746,1.1773,1.1762,1.1779,1.1807,1.1815,1.1823,1.1869,1.186,1.1874,1.19,1.1919,1.1925,1.193,1.1947,1.1953,1.1878,1.1878,1.1878,0,1.1693,1.1724,1.172,1.1743,1.1753,1.1741,1.1767,1.1775,1.1791,1.1798,1.1787,1.1823,1.1828,1.1862,1.1874,1.188,1.1887,1.1874,1.1924,1.1929,1.1934,1.195,1.1957,1.188,1.188,1.1879,1.1879,0,1.1749,1.177,1.1789,1.1807,1.1819,1.1843,1.1842,1.1855,1.185,1.1852,1.188,1.1887,1.1903,1.1911,1.1906,1.1944,1.1938,1.1925,1.1905,1.1942,1.1958,1.1964,1.1882,1.1882,1.1881,1.1881,0,0,1.1806,1.1822,1.1829,1.1838,1.1851,1.1866,1.1889,1.1907,1.1918,1.1929,1.1949,1.1973,1.1962,1.1971,1.1967,1.1983,1.2021,1.1969,1.1969,1.1979,1.2063,1.2073,1.2081,1.2014,1.2016,1.2016,1.2063,0,1.1851,1.1893,1.1891,1.193,1.1949,1.1938,1.1958,1.1968,1.197,1.1986,1.1988,1.2006,1.199,1.1995,1.2011,1.2013,1.2038,1.2009,1.2032,1.2033,1.2031,1.2088,1.2099,1.2142,1.2069,1.207,1.207,0,1.1908,1.1924,1.1965,1.1976,1.1984,1.2002,1.2018,1.2034,1.2045,1.2045,1.2055,1.2049,1.2071,1.205,1.2082,1.2063,1.2071,1.2074,1.2076,1.2078,1.2055,1.2093,1.2156,1.2163,1.208,1.2079,1.2078,0,1.1947,1.1977,1.2007,1.2014,1.2027,1.204,1.2046,1.2055,1.2066,1.208,1.2087,1.2102,1.2111,1.2123,1.212,1.2105,1.2153,1.2131,1.2153,1.2154,1.2165,1.2164,1.223,1.2169,1.2169,1.2169,1.2169,0,1.1998,1.2024,1.2024,1.2042,1.2071,1.2068,1.2096,1.21,1.2109,1.2127,1.2117,1.2134,1.2129,1.2146,1.2144,1.217,1.2174,1.2175,1.2174,1.2176,1.2176,1.2182,1.218,1.2171,1.217,1.217,1.217,0,1.2046,1.2048,1.2079,1.2089,1.2092,1.2113,1.2121,1.2137,1.2139,1.2162,1.2167,1.2169,1.2188,1.2186,1.2207,1.2206,1.2239,1.2234,1.2236,1.2235,1.2258,1.2257,1.2332,1.2341,1.2273,1.2274,1.2274,0,1.2078,1.2098,1.2111,1.2123,1.2131,1.215,1.2161,1.2158,1.217,1.2184,1.2199,1.2217,1.2232,1.2263,1.2265,1.2281,1.2277,1.2303,1.228,1.2281,1.2279,1.2278,1.228,1.2307,1.2308,1.2309,1.2309,0,1.2136,1.2136,1.2154,1.2172,1.2186,1.22,1.2212,1.2222,1.222,1.2234,1.2254,1.2266,1.2288,1.2306,1.2321,1.2326,1.2318,1.2316,1.2322,1.2325,1.2326,1.2327,1.2249,1.2315,1.2314,1.2314,1.2313,1.2313,1.2178,1.2196,1.2208,1.2228,1.2237,1.2249,1.2266,1.227,1.2287,1.2305,1.2302,1.2325,1.2334,1.2354,1.2361,1.2378,1.2369,1.2377,1.238,1.2382,1.2385,1.2323,1.238,1.238,1.238,1.238,1.238,0,1.2236,1.2244,1.2262,1.228,1.2296,1.2287,1.2301,1.2314,1.2334,1.2345,1.236,1.2383,1.2401,1.2405,1.2422,1.2435,1.2431,1.2439,1.2439,1.244,1.2392,1.2385,1.2442,1.2442,1.2442,1.2442,1.2442,1.2442,1.2268,1.2298,1.2299,1.2333,1.234,1.2363,1.2372,1.2383,1.2391,1.2418,1.2433,1.2436,1.2444,1.2461,1.2477,1.2478,1.2485,1.2495,1.2494,1.2449,1.2443,1.2437,1.2431,1.2496,1.2496,1.2541,1.2541,1.2541]}]]